N744LA KDTA-KMKE

Flight info

Callsign N744LA
Flight time N/A
Altitude 45000
Route DTA1 DTA J148 ONL Q122 VIGGR OGECA GOPAC3
Aircraft C700/L-VGDW/C

Departure

Time N/A
Airport Delta Municipal Airport (KDTA)

Arrival

Time 2026-05-01 10:56
Airport General Mitchell International Airport (KMKE)
Time Latitude Longitude Altitude Speed Heading
2026-05-01 10:50 42.81950 -88.16344 6477 ft 285 kts 81°
2026-05-01 10:50 42.82124 -88.13680 5914 ft 281 kts 81°
2026-05-01 10:51 42.82300 -88.11046 5355 ft 278 kts 82°
2026-05-01 10:51 42.82469 -88.08445 4816 ft 275 kts 82°
2026-05-01 10:51 42.82638 -88.05874 4280 ft 271 kts 82°
2026-05-01 10:51 42.82801 -88.03368 3778 ft 267 kts 83°
2026-05-01 10:52 42.82963 -88.00855 3271 ft 264 kts 83°
2026-05-01 10:52 42.83065 -87.98377 2780 ft 260 kts 86°
2026-05-01 10:52 42.83447 -87.96047 2599 ft 241 kts 67°
2026-05-01 10:52 42.84149 -87.94207 2599 ft 194 kts 54°
2026-05-01 10:53 42.84965 -87.92885 2403 ft 172 kts 42°
2026-05-01 10:53 42.85805 -87.91955 2229 ft 139 kts 32°
2026-05-01 10:53 42.86605 -87.91326 2041 ft 130 kts 24°
2026-05-01 10:53 42.87429 -87.90877 1872 ft 126 kts 16°
2026-05-01 10:54 42.88259 -87.90602 1695 ft 124 kts
2026-05-01 10:54 42.89126 -87.90458 1512 ft 124 kts
2026-05-01 10:54 42.89981 -87.90299 1341 ft 126 kts
2026-05-01 10:54 42.90854 -87.90150 1172 ft 126 kts
2026-05-01 10:55 42.91716 -87.89997 1011 ft 125 kts
2026-05-01 10:55 42.92583 -87.89847 846 ft 124 kts
2026-05-01 10:55 42.93432 -87.89699 706 ft 121 kts
2026-05-01 10:55 42.94120 -87.89583 687 ft 76 kts
2026-05-01 10:56 42.94543 -87.89511 687 ft 50 kts
2026-05-01 10:56 42.94859 -87.89455 679 ft 43 kts
2026-05-01 10:56 42.95136 -87.89409 674 ft 37 kts
2026-05-01 10:56 42.95377 -87.89367 674 ft 33 kts
2026-05-01 10:57 42.95594 -87.89330 678 ft 30 kts
2026-05-01 10:57 42.95738 -87.89348 675 ft 17 kts 301°
2026-05-01 10:57 42.95744 -87.89513 680 ft 18 kts 270°
2026-05-01 10:57 42.95746 -87.89686 680 ft 15 kts 272°
2026-05-01 10:58 42.95795 -87.89743 679 ft 3 kts 358°
2026-05-01 10:58 42.95796 -87.89743 679 ft 0 kts 358°